,,,PA_Meas_PMT16A,,PR_Meas_QMR101_102,,RH_Meas_QMH101,,SR_Meas_QMS101,,TA_Meas_QMH101,,GenWind,,GenWind,
date,time,status,PA,status,PR,status,RH,status,SR,status,TA,status,DirAvg,status,SpdAvg,
2009-10-11, 00:00:04,VALID,1006.3,VALID,0,VALID,92.2561,VALID,0,VALID,24.2273,VALID,343,VALID,0,
2009-10-11, 00:01:04,VALID,1006.28,VALID,0,VALID,92.2332,VALID,0,VALID,24.2273,VALID,343,VALID,0,
2009-10-11, 00:02:04,VALID,1006.27,VALID,0,VALID,92.2637,VALID,0,VALID,24.2273,VALID,343,VALID,0,
2009-10-11, 00:03:04,VALID,1006.23,VALID,0,VALID,92.195,VALID,0,VALID,24.2486,VALID,343,VALID,0,
2009-10-11, 00:04:04,VALID,1006.19,VALID,0,VALID,92.073,VALID,0.100563,VALID,24.2291,VALID,343,VALID,0,
2009-10-11, 00:05:04,VALID,1006.2,VALID,0,VALID,91.989,VALID,0,VALID,24.2273,VALID,343,VALID,0,
2009-10-11, 00:06:04,VALID,1006.15,VALID,0,VALID,91.9585,VALID,0,VALID,24.2468,VALID,343,VALID,0,
2009-10-11, 00:07:04,VALID,1006.14,VALID,0,VALID,91.8899,VALID,0,VALID,24.2681,VALID,343,VALID,0,
2009-10-11, 00:08:04,VALID,1006.15,VALID,0,VALID,91.7831,VALID,0,VALID,24.2681,VALID,343,VALID,0.0117188,
2009-10-11, 00:09:04,VALID,1006.1,VALID,0,VALID,91.7297,VALID,0,VALID,24.2875,VALID,343,VALID,0.0960938,
2009-10-11, 00:10:04,VALID,1006.13,VALID,0,VALID,91.9738,VALID,0,VALID,24.3052,VALID,343,VALID,0.405859,
2009-10-11, 00:11:04,VALID,1006.09,VALID,0,VALID,91.9509,VALID,0,VALID,24.3052,VALID,343,VALID,0.319531,
2009-10-11, 00:12:04,VALID,1006.13,VALID,0,VALID,91.9051,VALID,0,VALID,24.3052,VALID,343,VALID,0.484766,
2009-10-11, 00:13:04,VALID,1006.13,VALID,0,VALID,91.9509,VALID,0,VALID,24.3283,VALID,343,VALID,0.39375,
2009-10-11, 00:14:04,VALID,1006.15,VALID,0,VALID,92.1111,VALID,0,VALID,24.307,VALID,343,VALID,0.574609,
2009-10-11, 00:15:04,VALID,1006.14,VALID,0,VALID,92.1569,VALID,0,VALID,24.2875,VALID,343,VALID,0.44375,
2009-10-11, 00:16:04,VALID,1006.15,VALID,0,VALID,92.0196,VALID,0,VALID,24.2486,VALID,343,VALID,0.374219,
2009-10-11, 00:17:04,VALID,1006.14,VALID,0,VALID,91.9738,VALID,0,VALID,24.2681,VALID,343,VALID,0,
2009-10-11, 00:18:04,VALID,1006.12,VALID,0,VALID,92.0348,VALID,0,VALID,24.2681,VALID,343,VALID,0,
2009-10-11, 00:19:04,VALID,1006.1,VALID,0,VALID,91.928,VALID,0,VALID,24.2681,VALID,335,VALID,0.219531,
2009-10-11, 00:20:04,VALID,1006.09,VALID,0,VALID,91.8136,VALID,0,VALID,24.2875,VALID,332,VALID,0,
2009-10-11, 00:21:04,VALID,1006.08,VALID,0,VALID,91.6305,VALID,0,VALID,24.2875,VALID,332,VALID,0,
2009-10-11, 00:22:04,VALID,1006.04,VALID,0,VALID,91.4779,VALID,0,VALID,24.3459,VALID,332,VALID,0.128906,
2009-10-11, 00:23:04,VALID,1006.03,VALID,0,VALID,91.2567,VALID,0,VALID,24.3849,VALID,332,VALID,0,
2009-10-11, 00:24:04,VALID,1006.03,VALID,0,VALID,91.1499,VALID,0,VALID,24.4043,VALID,332,VALID,0.00117188,
2009-10-11, 00:25:04,VALID,1006.02,VALID,0,VALID,91.1651,VALID,0,VALID,24.4433,VALID,332,VALID,0.430469,
2009-10-11, 00:26:04,VALID,1006.01,VALID,0,VALID,91.333,VALID,0,VALID,24.4433,VALID,332,VALID,0.270703,
2009-10-11, 00:27:04,VALID,1006.03,VALID,0,VALID,91.455,VALID,0,VALID,24.4238,VALID,332,VALID,0.232031,
2009-10-11, 00:28:04,VALID,1005.99,VALID,0,VALID,91.5618,VALID,0,VALID,24.4025,VALID,332,VALID,0.254687,
2009-10-11, 00:29:04,VALID,1005.97,VALID,0,VALID,91.6152,VALID,0,VALID,24.3636,VALID,332,VALID,0.219531,
2009-10-11, 00:30:04,VALID,1005.99,VALID,0,VALID,91.7602,VALID,0,VALID,24.3441,VALID,332,VALID,0.524219,
2009-10-11, 00:31:04,VALID,1005.98,VALID,0,VALID,91.8441,VALID,0,VALID,24.3459,VALID,332,VALID,0.539844,
2009-10-11, 00:32:04,VALID,1006,VALID,0,VALID,91.9738,VALID,0,VALID,24.3441,VALID,332,VALID,0.291016,
2009-10-11, 00:33:04,VALID,1005.96,VALID,0,VALID,91.8441,VALID,0,VALID,24.3246,VALID,332,VALID,0.376172,
2009-10-11, 00:34:04,VALID,1005.96,VALID,0,VALID,91.7297,VALID,0.100563,VALID,24.3636,VALID,336,VALID,0.417969,
2009-10-11, 00:35:04,VALID,1005.97,VALID,0,VALID,91.5542,VALID,0,VALID,24.383,VALID,329,VALID,0.491016,
2009-10-11, 00:36:04,VALID,1005.97,VALID,0,VALID,91.3864,VALID,0,VALID,24.4414,VALID,314,VALID,0.430469,
2009-10-11, 00:37:04,VALID,1005.97,VALID,0,VALID,91.1728,VALID,0,VALID,24.4998,VALID,340,VALID,0.657031,
2009-10-11, 00:38:04,VALID,1006,VALID,0,VALID,90.921,VALID,0.100563,VALID,24.5601,VALID,346,VALID,0.319531,
2009-10-11, 00:39:04,VALID,1005.97,VALID,0,VALID,90.6692,VALID,0,VALID,24.6185,VALID,349,VALID,0.498047,
2009-10-11, 00:40:04,VALID,1005.97,VALID,0,VALID,90.3336,VALID,0,VALID,24.6361,VALID,352,VALID,0.663281,
2009-10-11, 00:41:04,VALID,1005.96,VALID,0,VALID,89.8453,VALID,0,VALID,24.7529,VALID,346,VALID,0.594531,
2009-10-11, 00:42:04,VALID,1005.96,VALID,0,VALID,89.2503,VALID,0,VALID,24.8308,VALID,350,VALID,0.601172,
2009-10-11, 00:43:04,VALID,1005.96,VALID,0,VALID,88.8841,VALID,0,VALID,24.9282,VALID,339,VALID,0.557422,
2009-10-11, 00:44:04,VALID,1005.96,VALID,0,VALID,88.5713,VALID,0,VALID,25.0079,VALID,358,VALID,0.867969,
2009-10-11, 00:45:04,VALID,1005.97,VALID,0,VALID,88.1517,VALID,0,VALID,25.0644,VALID,354,VALID,0.717188,
2009-10-11, 00:46:04,VALID,1005.94,VALID,0,VALID,87.6635,VALID,0,VALID,25.1423,VALID,347,VALID,0.692187,
2009-10-11, 00:47:04,VALID,1005.94,VALID,0,VALID,87.2973,VALID,0,VALID,25.2202,VALID,8,VALID,1.08789,
2009-10-11, 00:48:04,VALID,1005.93,VALID,0,VALID,86.8243,VALID,0,VALID,25.337,VALID,344,VALID,0.936328,
2009-10-11, 00:49:04,VALID,1005.93,VALID,0,VALID,86.5268,VALID,0,VALID,25.4363,VALID,335,VALID,0.621484,
2009-10-11, 00:50:04,VALID,1005.92,VALID,0,VALID,86.481,VALID,0,VALID,25.4149,VALID,321,VALID,0.196875,
2009-10-11, 00:51:04,VALID,1005.91,VALID,0,VALID,86.2826,VALID,0,VALID,25.4539,VALID,352,VALID,0.869141,
2009-10-11, 00:52:04,VALID,1005.9,VALID,0,VALID,86.1758,VALID,0,VALID,25.4753,VALID,328,VALID,0.851563,
2009-10-11, 00:53:04,VALID,1005.92,VALID,0,VALID,86.0995,VALID,0,VALID,25.4734,VALID,359,VALID,0.679297,
2009-10-11, 00:54:04,VALID,1005.91,VALID,0,VALID,85.9699,VALID,0,VALID,25.4928,VALID,351,VALID,0.719922,
2009-10-11, 00:55:04,VALID,1005.91,VALID,0,VALID,85.9699,VALID,0,VALID,25.5123,VALID,342,VALID,0.375391,
2009-10-11, 00:56:04,VALID,1005.91,VALID,0,VALID,86.0004,VALID,0,VALID,25.5123,VALID,342,VALID,0.64375,
2009-10-11, 00:57:04,VALID,1005.91,VALID,0,VALID,86.2292,VALID,0,VALID,25.4734,VALID,343,VALID,0.411328,
2009-10-11, 00:58:04,VALID,1005.93,VALID,0,VALID,86.3818,VALID,0,VALID,25.4558,VALID,347,VALID,0.573047,
2009-10-11, 00:59:04,VALID,1005.91,VALID,0,VALID,86.7556,VALID,0,VALID,25.4383,VALID,349,VALID,0.467969,
2009-10-11, 01:00:04,VALID,1005.92,VALID,0,VALID,87.0913,VALID,0,VALID,25.3798,VALID,349,VALID,0.0546875,
2009-10-11, 01:01:04,VALID,1005.9,VALID,0,VALID,87.3736,VALID,0,VALID,25.3214,VALID,349,VALID,0.214062,
2009-10-11, 01:02:04,VALID,1005.91,VALID,0,VALID,87.7092,VALID,0,VALID,25.2221,VALID,349,VALID,0.249609,
2009-10-11, 01:03:04,VALID,1005.92,VALID,0,VALID,88.0678,VALID,0,VALID,25.1637,VALID,349,VALID,0.364453,
2009-10-11, 01:04:04,VALID,1005.89,VALID,0,VALID,88.3806,VALID,0,VALID,25.1248,VALID,349,VALID,0.339453,
2009-10-11, 01:05:04,VALID,1005.89,VALID,0,VALID,88.6323,VALID,0,VALID,25.0663,VALID,349,VALID,0.194922,
2009-10-11, 01:06:04,VALID,1005.87,VALID,0,VALID,88.8383,VALID,0,VALID,25.0079,VALID,349,VALID,0.312109,
2009-10-11, 01:07:04,VALID,1005.87,VALID,0,VALID,88.7849,VALID,0,VALID,25.0274,VALID,349,VALID,0.318359,
2009-10-11, 01:08:04,VALID,1005.84,VALID,0,VALID,88.8383,VALID,0,VALID,25.0293,VALID,349,VALID,0.291797,
2009-10-11, 01:09:04,VALID,1005.81,VALID,0,VALID,88.8383,VALID,0,VALID,24.9885,VALID,349,VALID,0.365625,
2009-10-11, 01:10:04,VALID,1005.81,VALID,0,VALID,88.8765,VALID,0,VALID,25.0079,VALID,352,VALID,0.141797,
2009-10-11, 01:11:04,VALID,1005.78,VALID,0,VALID,88.7925,VALID,0,VALID,25.0293,VALID,340,VALID,0.526953,
2009-10-11, 01:12:04,VALID,1005.75,VALID,0,VALID,88.701,VALID,0,VALID,25.0293,VALID,340,VALID,0.0761719,
2009-10-11, 01:13:04,VALID,1005.74,VALID,0,VALID,88.6705,VALID,0,VALID,25.006,VALID,349,VALID,0.455469,
2009-10-11, 01:14:04,VALID,1005.7,VALID,0,VALID,88.5484,VALID,0,VALID,25.0255,VALID,352,VALID,0.351953,
2009-10-11, 01:15:04,VALID,1005.69,VALID,0,VALID,88.3577,VALID,0.100563,VALID,25.0858,VALID,354,VALID,0.652734,
2009-10-11, 01:16:04,VALID,1005.66,VALID,0,VALID,88.2127,VALID,0,VALID,25.1248,VALID,354,VALID,0.336719,
2009-10-11, 01:17:04,VALID,1005.62,VALID,0,VALID,88.0449,VALID,0,VALID,25.1229,VALID,353,VALID,0.318359,
2009-10-11, 01:18:04,VALID,1005.63,VALID,0,VALID,87.9534,VALID,0,VALID,25.1248,VALID,353,VALID,0.158203,
2009-10-11, 01:19:04,VALID,1005.62,VALID,0,VALID,87.9457,VALID,0,VALID,25.1423,VALID,353,VALID,0.382422,
2009-10-11, 01:20:04,VALID,1005.63,VALID,0,VALID,88.1059,VALID,0,VALID,25.1442,VALID,353,VALID,0.164844,
2009-10-11, 01:21:04,VALID,1005.61,VALID,0,VALID,88.289,VALID,0,VALID,25.1053,VALID,353,VALID,0.151562,
2009-10-11, 01:22:04,VALID,1005.61,VALID,0,VALID,88.556,VALID,0.100563,VALID,25.0255,VALID,353,VALID,0.218359,
2009-10-11, 01:23:04,VALID,1005.58,VALID,0,VALID,88.8688,VALID,0,VALID,24.9671,VALID,353,VALID,0.254297,
2009-10-11, 01:24:04,VALID,1005.58,VALID,0,VALID,89.2045,VALID,0,VALID,24.9087,VALID,353,VALID,0.310156,
2009-10-11, 01:25:04,VALID,1005.55,VALID,0,VALID,89.4105,VALID,0,VALID,24.8522,VALID,353,VALID,0.363672,
2009-10-11, 01:26:04,VALID,1005.54,VALID,0,VALID,89.7156,VALID,0,VALID,24.7937,VALID,353,VALID,0.335938,
2009-10-11, 01:27:04,VALID,1005.52,VALID,0,VALID,89.9674,VALID,0,VALID,24.7335,VALID,353,VALID,0.271875,
2009-10-11, 01:28:04,VALID,1005.52,VALID,0,VALID,90.1963,VALID,0,VALID,24.675,VALID,353,VALID,0.317578,
2009-10-11, 01:29:04,VALID,1005.51,VALID,0,VALID,90.509,VALID,0,VALID,24.6574,VALID,353,VALID,0.216406,
2009-10-11, 01:30:04,VALID,1005.49,VALID,0,VALID,90.715,VALID,0,VALID,24.5972,VALID,353,VALID,0.426172,
2009-10-11, 01:31:04,VALID,1005.49,VALID,0,VALID,90.8905,VALID,0,VALID,24.5582,VALID,353,VALID,0.321484,
2009-10-11, 01:32:04,VALID,1005.47,VALID,0,VALID,91.0888,VALID,0,VALID,24.5406,VALID,353,VALID,0.470313,
2009-10-11, 01:33:04,VALID,1005.48,VALID,0,VALID,91.2643,VALID,0,VALID,24.4804,VALID,354,VALID,0.446875,
2009-10-11, 01:34:04,VALID,1005.5,VALID,0,VALID,91.4245,VALID,0,VALID,24.4609,VALID,354,VALID,0.385547,
2009-10-11, 01:35:04,VALID,1005.5,VALID,0,VALID,91.5847,VALID,0,VALID,24.422,VALID,354,VALID,0.244141,
2009-10-11, 01:36:04,VALID,1005.48,VALID,0,VALID,91.7602,VALID,0,VALID,24.383,VALID,354,VALID,0.291016,
2009-10-11, 01:37:04,VALID,1005.5,VALID,0,VALID,91.9433,VALID,0.100563,VALID,24.3636,VALID,354,VALID,0.246484,
2009-10-11, 01:38:04,VALID,1005.47,VALID,0,VALID,92.0653,VALID,0,VALID,24.3636,VALID,354,VALID,0,
2009-10-11, 01:39:04,VALID,1005.47,VALID,0,VALID,92.1264,VALID,0.100563,VALID,24.3636,VALID,354,VALID,0,
2009-10-11, 01:40:04,VALID,1005.46,VALID,0,VALID,92.1874,VALID,0,VALID,24.3441,VALID,354,VALID,0,
2009-10-11, 01:41:04,VALID,1005.44,VALID,0,VALID,92.2637,VALID,0,VALID,24.3441,VALID,354,VALID,0,
2009-10-11, 01:42:04,VALID,1005.42,VALID,0,VALID,92.3018,VALID,0.100563,VALID,24.3246,VALID,354,VALID,0.313672,
2009-10-11, 01:43:04,VALID,1005.4,VALID,0,VALID,92.401,VALID,0,VALID,24.307,VALID,354,VALID,0.365234,
2009-10-11, 01:44:04,VALID,1005.41,VALID,0,VALID,92.4925,VALID,0,VALID,24.3265,VALID,354,VALID,0.306641,
2009-10-11, 01:45:04,VALID,1005.39,VALID,0,VALID,92.5154,VALID,0,VALID,24.3459,VALID,354,VALID,0.383984,
2009-10-11, 01:46:04,VALID,1005.37,VALID,0,VALID,92.4849,VALID,0,VALID,24.3459,VALID,354,VALID,0.601563,
2009-10-11, 01:47:04,VALID,1005.37,VALID,0,VALID,92.4544,VALID,0,VALID,24.3265,VALID,354,VALID,0.336719,
2009-10-11, 01:48:04,VALID,1005.34,VALID,0,VALID,92.4239,VALID,0,VALID,24.3459,VALID,354,VALID,0.505469,
2009-10-11, 01:49:04,VALID,1005.33,VALID,0,VALID,92.401,VALID,0,VALID,24.3265,VALID,354,VALID,0.420703,
2009-10-11, 01:50:04,VALID,1005.34,VALID,0,VALID,92.4544,VALID,0,VALID,24.3265,VALID,354,VALID,0.372656,
2009-10-11, 01:51:04,VALID,1005.27,VALID,0,VALID,92.5078,VALID,0,VALID,24.307,VALID,354,VALID,0.261328,
2009-10-11, 01:52:04,VALID,1005.27,VALID,0,VALID,92.5917,VALID,0,VALID,24.307,VALID,354,VALID,0,
2009-10-11, 01:53:04,VALID,1005.22,VALID,0,VALID,92.6146,VALID,0,VALID,24.307,VALID,354,VALID,0,
2009-10-11, 01:54:04,VALID,1005.21,VALID,0,VALID,92.668,VALID,0,VALID,24.307,VALID,354,VALID,0,
2009-10-11, 01:55:04,VALID,1005.17,VALID,0,VALID,92.6756,VALID,0,VALID,24.3088,VALID,354,VALID,0,
2009-10-11, 01:56:04,VALID,1005.15,VALID,0,VALID,92.7443,VALID,0,VALID,24.2681,VALID,354,VALID,0,
2009-10-11, 01:57:04,VALID,1005.14,VALID,0,VALID,92.7672,VALID,0,VALID,24.2486,VALID,354,VALID,0,
2009-10-11, 01:58:04,VALID,1005.12,VALID,0,VALID,92.8053,VALID,0,VALID,24.2681,VALID,354,VALID,0,
2009-10-11, 01:59:04,VALID,1005.09,VALID,0,VALID,92.874,VALID,0,VALID,24.2486,VALID,354,VALID,0,
2009-10-11, 02:00:04,VALID,1005.06,VALID,0,VALID,92.935,VALID,0,VALID,24.2291,VALID,354,VALID,0,
2009-10-11, 02:01:04,VALID,1005.05,VALID,0,VALID,92.9579,VALID,0,VALID,24.2504,VALID,354,VALID,0,
2009-10-11, 02:02:04,VALID,1005.05,VALID,0,VALID,93.0266,VALID,0,VALID,24.2291,VALID,354,VALID,0,
2009-10-11, 02:03:04,VALID,1005.04,VALID,0,VALID,93.1181,VALID,0,VALID,24.231,VALID,354,VALID,0,
2009-10-11, 02:04:04,VALID,1005,VALID,0,VALID,93.1868,VALID,0,VALID,24.2097,VALID,354,VALID,0,
2009-10-11, 02:05:04,VALID,1005.01,VALID,0,VALID,93.2097,VALID,0,VALID,24.1902,VALID,354,VALID,0,
2009-10-11, 02:06:04,VALID,1005.01,VALID,0,VALID,93.2554,VALID,0,VALID,24.1707,VALID,354,VALID,0,
2009-10-11, 02:07:04,VALID,1005.02,VALID,0,VALID,93.2783,VALID,0,VALID,24.1707,VALID,354,VALID,0,
2009-10-11, 02:08:04,VALID,1004.97,VALID,0,VALID,93.3241,VALID,0,VALID,24.1513,VALID,354,VALID,0,
2009-10-11, 02:09:04,VALID,1004.97,VALID,0,VALID,93.3775,VALID,0,VALID,24.1318,VALID,354,VALID,0,
2009-10-11, 02:10:04,VALID,1004.95,VALID,0,VALID,93.4233,VALID,0,VALID,24.1123,VALID,354,VALID,0,
2009-10-11, 02:11:04,VALID,1004.97,VALID,0,VALID,93.4767,VALID,0,VALID,24.1105,VALID,354,VALID,0,
2009-10-11, 02:12:04,VALID,1004.94,VALID,0,VALID,93.5301,VALID,0,VALID,24.1123,VALID,354,VALID,0,
2009-10-11, 02:13:04,VALID,1004.94,VALID,0,VALID,93.5911,VALID,0,VALID,24.0929,VALID,354,VALID,0,
2009-10-11, 02:14:04,VALID,1004.95,VALID,0,VALID,93.675,VALID,0,VALID,24.0929,VALID,354,VALID,0.0988281,
2009-10-11, 02:15:04,VALID,1004.94,VALID,0,VALID,93.7361,VALID,0,VALID,24.1123,VALID,354,VALID,0.408594,
2009-10-11, 02:16:04,VALID,1004.92,VALID,0,VALID,93.7666,VALID,0,VALID,24.0929,VALID,354,VALID,0.424219,
2009-10-11, 02:17:04,VALID,1004.9,VALID,0,VALID,93.82,VALID,0,VALID,24.1142,VALID,354,VALID,0.374219,
2009-10-11, 02:18:04,VALID,1004.94,VALID,0,VALID,93.8505,VALID,0,VALID,24.1123,VALID,354,VALID,0.237109,
2009-10-11, 02:19:04,VALID,1004.91,VALID,0,VALID,93.8963,VALID,0,VALID,24.091,VALID,354,VALID,0.267578,
2009-10-11, 02:20:04,VALID,1004.93,VALID,0,VALID,93.8886,VALID,0,VALID,24.091,VALID,354,VALID,0.431641,
2009-10-11, 02:21:04,VALID,1004.91,VALID,0,VALID,93.8657,VALID,0,VALID,24.0929,VALID,354,VALID,0.216016,
2009-10-11, 02:22:04,VALID,1004.88,VALID,0,VALID,93.8734,VALID,0,VALID,24.0734,VALID,354,VALID,0.279297,
2009-10-11, 02:23:04,VALID,1004.88,VALID,0,VALID,93.881,VALID,0,VALID,24.0929,VALID,354,VALID,0.199219,
2009-10-11, 02:24:04,VALID,1004.85,VALID,0,VALID,93.8963,VALID,0,VALID,24.0521,VALID,354,VALID,0.448438,
2009-10-11, 02:25:04,VALID,1004.86,VALID,0,VALID,93.9344,VALID,0,VALID,24.0734,VALID,354,VALID,0.533984,
2009-10-11, 02:26:04,VALID,1004.86,VALID,0,VALID,93.9191,VALID,0,VALID,24.0734,VALID,354,VALID,0.433984,
2009-10-11, 02:27:04,VALID,1004.83,VALID,0,VALID,93.9573,VALID,0,VALID,24.0539,VALID,354,VALID,0.322266,
2009-10-11, 02:28:04,VALID,1004.82,VALID,0,VALID,93.9725,VALID,0,VALID,24.0557,VALID,354,VALID,0.269922,
2009-10-11, 02:29:04,VALID,1004.83,VALID,0,VALID,93.9954,VALID,0,VALID,24.0539,VALID,354,VALID,0.201562,
2009-10-11, 02:30:04,VALID,1004.83,VALID,0,VALID,94.0183,VALID,0,VALID,24.0363,VALID,354,VALID,0.185547,
2009-10-11, 02:31:04,VALID,1004.82,VALID,0,VALID,94.0336,VALID,0,VALID,24.0557,VALID,354,VALID,0.0652344,
2009-10-11, 02:32:04,VALID,1004.84,VALID,0,VALID,94.087,VALID,0,VALID,24.015,VALID,354,VALID,0.117578,
2009-10-11, 02:33:04,VALID,1004.82,VALID,0,VALID,94.087,VALID,0,VALID,24.015,VALID,354,VALID,0.192188,
2009-10-11, 02:34:04,VALID,1004.81,VALID,0,VALID,94.087,VALID,0,VALID,23.9937,VALID,354,VALID,0,
2009-10-11, 02:35:04,VALID,1004.78,VALID,0,VALID,94.1099,VALID,0,VALID,23.9761,VALID,354,VALID,0.0117188,
2009-10-11, 02:36:04,VALID,1004.82,VALID,0,VALID,94.1404,VALID,0,VALID,23.9955,VALID,354,VALID,0.194141,
2009-10-11, 02:37:04,VALID,1004.81,VALID,0,VALID,94.1633,VALID,0,VALID,23.9973,VALID,354,VALID,0.169922,
2009-10-11, 02:38:04,VALID,1004.78,VALID,0,VALID,94.1862,VALID,0,VALID,23.9761,VALID,354,VALID,0,
2009-10-11, 02:39:04,VALID,1004.8,VALID,0,VALID,94.1938,VALID,0,VALID,23.9566,VALID,354,VALID,0,
2009-10-11, 02:40:04,VALID,1004.8,VALID,0,VALID,94.2167,VALID,0,VALID,23.9159,VALID,354,VALID,0,
2009-10-11, 02:41:04,VALID,1004.79,VALID,0,VALID,94.2548,VALID,0,VALID,23.9371,VALID,354,VALID,0,
2009-10-11, 02:42:04,VALID,1004.79,VALID,0,VALID,94.2777,VALID,0,VALID,23.9371,VALID,354,VALID,0,
2009-10-11, 02:43:04,VALID,1004.79,VALID,0,VALID,94.293,VALID,0,VALID,23.9389,VALID,354,VALID,0,
2009-10-11, 02:44:04,VALID,1004.77,VALID,0,VALID,94.3006,VALID,0,VALID,23.9177,VALID,354,VALID,0,
2009-10-11, 02:45:04,VALID,1004.76,VALID,0,VALID,94.3464,VALID,0,VALID,23.8964,VALID,354,VALID,0,
2009-10-11, 02:46:05,VALID,1004.74,VALID,0,VALID,94.3692,VALID,0,VALID,23.9177,VALID,354,VALID,0,
2009-10-11, 02:47:05,VALID,1004.74,VALID,0,VALID,94.3769,VALID,0,VALID,23.9389,VALID,354,VALID,0,
2009-10-11, 02:48:05,VALID,1004.75,VALID,0,VALID,94.3769,VALID,0,VALID,23.9177,VALID,354,VALID,0,
2009-10-11, 02:49:05,VALID,1004.73,VALID,0,VALID,94.3769,VALID,0,VALID,23.8982,VALID,354,VALID,0,
2009-10-11, 02:50:05,VALID,1004.76,VALID,0,VALID,94.4227,VALID,0,VALID,23.8982,VALID,354,VALID,0,
2009-10-11, 02:51:05,VALID,1004.77,VALID,0,VALID,94.4303,VALID,0,VALID,23.8769,VALID,354,VALID,0,
2009-10-11, 02:52:05,VALID,1004.77,VALID,0,VALID,94.4379,VALID,0,VALID,23.8982,VALID,354,VALID,0,
2009-10-11, 02:53:05,VALID,1004.77,VALID,0,VALID,94.4532,VALID,0,VALID,23.8787,VALID,354,VALID,0,
2009-10-11, 02:54:05,VALID,1004.8,VALID,0,VALID,94.4379,VALID,0,VALID,23.8787,VALID,354,VALID,0,
2009-10-11, 02:55:05,VALID,1004.77,VALID,0,VALID,94.4532,VALID,0,VALID,23.8593,VALID,354,VALID,0,
2009-10-11, 02:56:05,VALID,1004.76,VALID,0,VALID,94.4761,VALID,0,VALID,23.8593,VALID,354,VALID,0,
2009-10-11, 02:57:05,VALID,1004.77,VALID,0,VALID,94.4989,VALID,0,VALID,23.8593,VALID,354,VALID,0,
2009-10-11, 02:58:05,VALID,1004.77,VALID,0,VALID,94.5295,VALID,0,VALID,23.8593,VALID,354,VALID,0,
2009-10-11, 02:59:05,VALID,1004.77,VALID,0,VALID,94.5295,VALID,0,VALID,23.8593,VALID,354,VALID,0,
2009-10-11, 03:00:05,VALID,1004.78,VALID,0,VALID,94.5676,VALID,0,VALID,23.8593,VALID,354,VALID,0,
2009-10-11, 03:01:05,VALID,1004.76,VALID,0,VALID,94.5981,VALID,0,VALID,23.8593,VALID,354,VALID,0,
2009-10-11, 03:02:05,VALID,1004.78,VALID,0,VALID,94.621,VALID,0,VALID,23.9,VALID,354,VALID,0,
2009-10-11, 03:03:05,VALID,1004.75,VALID,0,VALID,94.621,VALID,0,VALID,23.8787,VALID,354,VALID,0,
2009-10-11, 03:04:05,VALID,1004.79,VALID,0,VALID,94.6134,VALID,0,VALID,23.8593,VALID,354,VALID,0,
2009-10-11, 03:05:05,VALID,1004.8,VALID,0,VALID,94.6363,VALID,0,VALID,23.8787,VALID,354,VALID,0,
2009-10-11, 03:06:05,VALID,1004.78,VALID,0,VALID,94.6591,VALID,0,VALID,23.8982,VALID,354,VALID,0,
2009-10-11, 03:07:05,VALID,1004.8,VALID,0,VALID,94.6515,VALID,0,VALID,23.8787,VALID,354,VALID,0,
2009-10-11, 03:08:05,VALID,1004.79,VALID,0,VALID,94.6591,VALID,0,VALID,23.8787,VALID,354,VALID,0,
2009-10-11, 03:09:05,VALID,1004.78,VALID,0,VALID,94.6744,VALID,0,VALID,23.8982,VALID,354,VALID,0,
2009-10-11, 03:10:05,VALID,1004.74,VALID,0,VALID,94.7125,VALID,0,VALID,23.9177,VALID,354,VALID,0,
2009-10-11, 03:11:05,VALID,1004.77,VALID,0,VALID,94.7125,VALID,0,VALID,23.9177,VALID,354,VALID,0,
2009-10-11, 03:12:05,VALID,1004.73,VALID,0,VALID,94.7202,VALID,0,VALID,23.8964,VALID,354,VALID,0,
2009-10-11, 03:13:05,VALID,1004.73,VALID,0,VALID,94.7049,VALID,0,VALID,23.8982,VALID,354,VALID,0,
2009-10-11, 03:14:05,VALID,1004.72,VALID,0,VALID,94.7049,VALID,0,VALID,23.8982,VALID,354,VALID,0,
2009-10-11, 03:15:05,VALID,1004.75,VALID,0,VALID,94.6668,VALID,0,VALID,23.8787,VALID,354,VALID,0,
2009-10-11, 03:16:05,VALID,1004.73,VALID,0,VALID,94.7049,VALID,0,VALID,23.8593,VALID,354,VALID,0,
2009-10-11, 03:17:05,VALID,1004.71,VALID,0,VALID,94.682,VALID,0,VALID,23.8787,VALID,354,VALID,0,
2009-10-11, 03:18:05,VALID,1004.71,VALID,0,VALID,94.6744,VALID,0,VALID,23.8575,VALID,354,VALID,0,
2009-10-11, 03:19:05,VALID,1004.71,VALID,0,VALID,94.682,VALID,0,VALID,23.8575,VALID,354,VALID,0,
2009-10-11, 03:20:05,VALID,1004.7,VALID,0,VALID,94.7049,VALID,0,VALID,23.8982,VALID,354,VALID,0,
2009-10-11, 03:21:05,VALID,1004.72,VALID,0,VALID,94.6973,VALID,0,VALID,23.8787,VALID,354,VALID,0,
2009-10-11, 03:22:05,VALID,1004.74,VALID,0,VALID,94.682,VALID,0,VALID,23.8593,VALID,354,VALID,0,
2009-10-11, 03:23:05,VALID,1004.72,VALID,0,VALID,94.6668,VALID,0,VALID,23.8593,VALID,354,VALID,0,
2009-10-11, 03:24:05,VALID,1004.75,VALID,0,VALID,94.6744,VALID,0,VALID,23.8398,VALID,354,VALID,0,
2009-10-11, 03:25:05,VALID,1004.75,VALID,0,VALID,94.6439,VALID,0,VALID,23.8398,VALID,354,VALID,0,
2009-10-11, 03:26:05,VALID,1004.78,VALID,0,VALID,94.6515,VALID,0,VALID,23.8611,VALID,354,VALID,0,
2009-10-11, 03:27:05,VALID,1004.75,VALID,0,VALID,94.6668,VALID,0,VALID,23.8185,VALID,354,VALID,0,
2009-10-11, 03:28:05,VALID,1004.8,VALID,0,VALID,94.6897,VALID,0,VALID,23.8593,VALID,354,VALID,0,
2009-10-11, 03:29:05,VALID,1004.8,VALID,0,VALID,94.7049,VALID,0,VALID,23.8593,VALID,354,VALID,0,
2009-10-11, 03:30:05,VALID,1004.82,VALID,0,VALID,94.7354,VALID,0,VALID,23.8398,VALID,354,VALID,0,
2009-10-11, 03:31:05,VALID,1004.82,VALID,0,VALID,94.7736,VALID,0,VALID,23.838,VALID,354,VALID,0,
2009-10-11, 03:32:05,VALID,1004.83,VALID,0,VALID,94.7736,VALID,0,VALID,23.9,VALID,354,VALID,0,
2009-10-11, 03:33:05,VALID,1004.85,VALID,0,VALID,94.7812,VALID,0,VALID,23.8787,VALID,354,VALID,0,
2009-10-11, 03:34:05,VALID,1004.87,VALID,0,VALID,94.7812,VALID,0,VALID,23.8593,VALID,354,VALID,0,
2009-10-11, 03:35:05,VALID,1004.87,VALID,0,VALID,94.7812,VALID,0,VALID,23.838,VALID,354,VALID,0,
2009-10-11, 03:36:05,VALID,1004.87,VALID,0,VALID,94.8041,VALID,0,VALID,23.838,VALID,354,VALID,0,
2009-10-11, 03:37:05,VALID,1004.86,VALID,0,VALID,94.7965,VALID,0,VALID,23.8787,VALID,354,VALID,0,
2009-10-11, 03:38:05,VALID,1004.86,VALID,0,VALID,94.7965,VALID,0,VALID,23.8593,VALID,354,VALID,0,
2009-10-11, 03:39:05,VALID,1004.84,VALID,0,VALID,94.8041,VALID,0,VALID,23.838,VALID,354,VALID,0,
2009-10-11, 03:40:05,VALID,1004.88,VALID,0,VALID,94.8041,VALID,0,VALID,23.8787,VALID,354,VALID,0,
2009-10-11, 03:41:05,VALID,1004.84,VALID,0,VALID,94.8117,VALID,0,VALID,23.8593,VALID,354,VALID,0,
2009-10-11, 03:42:05,VALID,1004.89,VALID,0,VALID,94.8041,VALID,0,VALID,23.8575,VALID,354,VALID,0,
2009-10-11, 03:43:05,VALID,1004.87,VALID,0,VALID,94.8117,VALID,0,VALID,23.8593,VALID,354,VALID,0,
2009-10-11, 03:44:05,VALID,1004.87,VALID,0,VALID,94.8041,VALID,0,VALID,23.8593,VALID,354,VALID,0,
2009-10-11, 03:45:05,VALID,1004.9,VALID,0,VALID,94.8117,VALID,0,VALID,23.8593,VALID,354,VALID,0,
2009-10-11, 03:46:05,VALID,1004.92,VALID,0,VALID,94.7812,VALID,0,VALID,23.8593,VALID,354,VALID,0,
2009-10-11, 03:47:05,VALID,1004.93,VALID,0,VALID,94.7888,VALID,0,VALID,23.8185,VALID,354,VALID,0,
2009-10-11, 03:48:05,VALID,1004.92,VALID,0,VALID,94.766,VALID,0,VALID,23.8203,VALID,354,VALID,0,
2009-10-11, 03:49:05,VALID,1004.95,VALID,0,VALID,94.7965,VALID,0,VALID,23.8009,VALID,354,VALID,0,
2009-10-11, 03:50:05,VALID,1004.96,VALID,0,VALID,94.7583,VALID,0,VALID,23.8009,VALID,354,VALID,0,
2009-10-11, 03:51:05,VALID,1004.99,VALID,0,VALID,94.7736,VALID,0,VALID,23.8009,VALID,354,VALID,0,